HVDC transfer

From www.emi.ea.govt.nz provided by the Electricity Authority (New Zealand)
Run at: 20240522012353

Parameters
Date range,18 Apr 2024 - 18 Apr 2024
Time scale,Trading period
Show,Average flow (MW)

Period start,Period end,Trading period,Direction,Energy transfer (GWh),Peak flow (MW),Average flow (MW)
18/04/2024 00:00:00,18/04/2024 00:30:00,1,Northward at Haywards,0.124,247,247
18/04/2024 00:30:00,18/04/2024 01:00:00,2,Northward at Haywards,0.107,214,214
18/04/2024 01:00:00,18/04/2024 01:30:00,3,Northward at Haywards,0.077,154,154
18/04/2024 01:30:00,18/04/2024 02:00:00,4,Northward at Haywards,0.072,143,143
18/04/2024 02:00:00,18/04/2024 02:30:00,5,Northward at Haywards,0.064,128,128
18/04/2024 02:30:00,18/04/2024 03:00:00,6,Northward at Haywards,0.050,99,99
18/04/2024 03:00:00,18/04/2024 03:30:00,7,Northward at Haywards,0.046,91,91
18/04/2024 03:30:00,18/04/2024 04:00:00,8,Northward at Haywards,0.049,97,97
18/04/2024 04:00:00,18/04/2024 04:30:00,9,Northward at Haywards,0.064,128,128
18/04/2024 04:30:00,18/04/2024 05:00:00,10,Northward at Haywards,0.070,140,140
18/04/2024 05:00:00,18/04/2024 05:30:00,11,Northward at Haywards,0.090,179,179
18/04/2024 05:30:00,18/04/2024 06:00:00,12,Northward at Haywards,0.128,255,255
18/04/2024 06:00:00,18/04/2024 06:30:00,13,Northward at Haywards,0.166,332,332
18/04/2024 06:30:00,18/04/2024 07:00:00,14,Northward at Haywards,0.154,308,308
18/04/2024 07:00:00,18/04/2024 07:30:00,15,Northward at Haywards,0.198,395,395
18/04/2024 07:30:00,18/04/2024 08:00:00,16,Northward at Haywards,0.200,399,399
18/04/2024 08:00:00,18/04/2024 08:30:00,17,Northward at Haywards,0.214,428,428
18/04/2024 08:30:00,18/04/2024 09:00:00,18,Northward at Haywards,0.226,451,451
18/04/2024 09:00:00,18/04/2024 09:30:00,19,Northward at Haywards,0.237,474,474
18/04/2024 09:30:00,18/04/2024 10:00:00,20,Northward at Haywards,0.245,489,489
18/04/2024 10:00:00,18/04/2024 10:30:00,21,Northward at Haywards,0.246,492,492
18/04/2024 10:30:00,18/04/2024 11:00:00,22,Northward at Haywards,0.245,490,490
18/04/2024 11:00:00,18/04/2024 11:30:00,23,Northward at Haywards,0.266,531,531
18/04/2024 11:30:00,18/04/2024 12:00:00,24,Northward at Haywards,0.266,531,531
18/04/2024 12:00:00,18/04/2024 12:30:00,25,Northward at Haywards,0.268,535,535
18/04/2024 12:30:00,18/04/2024 13:00:00,26,Northward at Haywards,0.274,548,548
18/04/2024 13:00:00,18/04/2024 13:30:00,27,Northward at Haywards,0.257,513,513
18/04/2024 13:30:00,18/04/2024 14:00:00,28,Northward at Haywards,0.269,538,538
18/04/2024 14:00:00,18/04/2024 14:30:00,29,Northward at Haywards,0.258,515,515
18/04/2024 14:30:00,18/04/2024 15:00:00,30,Northward at Haywards,0.259,518,518
18/04/2024 15:00:00,18/04/2024 15:30:00,31,Northward at Haywards,0.256,511,511
18/04/2024 15:30:00,18/04/2024 16:00:00,32,Northward at Haywards,0.268,535,535
18/04/2024 16:00:00,18/04/2024 16:30:00,33,Northward at Haywards,0.261,521,521
18/04/2024 16:30:00,18/04/2024 17:00:00,34,Northward at Haywards,0.268,536,536
18/04/2024 17:00:00,18/04/2024 17:30:00,35,Northward at Haywards,0.274,548,548
18/04/2024 17:30:00,18/04/2024 18:00:00,36,Northward at Haywards,0.255,510,510
18/04/2024 18:00:00,18/04/2024 18:30:00,37,Northward at Haywards,0.235,469,469
18/04/2024 18:30:00,18/04/2024 19:00:00,38,Northward at Haywards,0.241,482,482
18/04/2024 19:00:00,18/04/2024 19:30:00,39,Northward at Haywards,0.241,482,482
18/04/2024 19:30:00,18/04/2024 20:00:00,40,Northward at Haywards,0.240,480,480
18/04/2024 20:00:00,18/04/2024 20:30:00,41,Northward at Haywards,0.228,456,456
18/04/2024 20:30:00,18/04/2024 21:00:00,42,Northward at Haywards,0.196,391,391
18/04/2024 21:00:00,18/04/2024 21:30:00,43,Northward at Haywards,0.165,330,330
18/04/2024 21:30:00,18/04/2024 22:00:00,44,Northward at Haywards,0.133,266,266
18/04/2024 22:00:00,18/04/2024 22:30:00,45,Northward at Haywards,0.106,211,211
18/04/2024 22:30:00,18/04/2024 23:00:00,46,Northward at Haywards,0.095,189,189
18/04/2024 23:00:00,18/04/2024 23:30:00,47,Northward at Haywards,0.073,145,145
18/04/2024 23:30:00,19/04/2024 00:00:00,48,Northward at Haywards,0.045,89,89
